User: anonymous   Login
Location: Caltech
(34.1382°N, 118.1253°W)
Time: 03:19:40
(UTC-08:00)
Language:

Cosmos 1408 Rocket - Orbit

View from above orbital plane
View from above orbital plane
View from above satellite
View from above satellite

Ground track
Ground track

The orbit data is extracted from the following two-line orbital elements,

1 13553U 82092B   17058.20229471  .00000117  00000-0  11029-4 0  9992
2 13553  82.5717 336.5534 0022673  50.9591 101.9580 14.84106984860729
Epoch (UTC): 27 February 2017 04:51:18
Eccentricity: 0.0022673
inclination: 82.5717°
perigee height: 600 km
apogee height: 632 km
right ascension of ascending node: 336.5534°
argument of perigee: 50.9591°
revolutions per day: 14.84106984
mean anomaly at epoch: 101.9580°
orbit number at epoch: 86072

The dashed part of the orbit path shows where the satellite is in the earth's shadow,  

DLR